Temperature
15 15 16 16 16 16 16 16 16 16 16 16 15 15 15 16 16 16 16 17 17 17 17 17 17 17 16 16 16 16 16 16 16 16 16 16 16 17 17 17 17 17 17
15 16 16 16 16 16 16 16 16 16 16 16 16 16 16 16 16 16 17 17 17 17 17 17 17 17 17 16 16 16 16 16 16 16 16 16 16 16 16 16 16 16 16
15 15 16 16 16 16 16 16 16 16 16 16 16 16 16 16 16 17 17 17 17 17 17 17 17 17 17 17 17 16 16 16 16 16 15 16 16 16 16 16 16 16 16
15 15 16 16 16 16 16 16 16 16 16 16 16 16 16 16 16 16 16 17 17 17 17 17 17 17 17 17 17 17 17 16 16 16 15 15 15 15 15 16 16 16 16
15 15 16 16 16 16 16 16 16 16 16 15 15 15 15 15 15 15 16 16 16 16 17 17 17 17 17 17 17 17 17 17 16 16 15 15 15 14 14 15 16 16 16
15 15 15 15 16 16 16 16 16 15 15 15 15 15 15 15 15 15 15 15 15 15 15 16 16 16 16 16 16 16 16 16 16 16 16 15 15 15 14 14 15 15 16
15 15 15 15 15 15 15 15 15 15 15 14 14 14 14 14 14 14 14 14 14 14 14 14 15 15 15 15 15 15 15 16 16 16 16 16 15 15 14 14 14 14 15
15 15 15 15 15 15 14 14 14 14 14 14 14 13 13 13 13 13 13 13 13 13 13 13 13 13 14 15 15 15 15 15 15 15 15 15 15 15 14 14 14 13 13
15 15 15 15 14 14 14 14 13 13 13 13 13 13 13 13 13 12 12 12 12 12 12 12 12 12 13 13 13 14 14 14 15 15 15 15 15 15 15 14 14 13 12
15 14 14 14 13 13 13 13 13 13 13 13 13 12 12 12 12 12 12 12 11 11 11 11 11 12 12 12 12 13 13 13 14 14 14 15 15 15 15 14 14 13 13
14 13 13 13 13 12 12 12 12 12 12 12 12 12 12 12 12 11 11 11 11 11 11 10 10 11 11 11 12 12 12 12 13 13 14 14 14 14 14 14 14 14 13
13 13 12 12 12 12 12 12 12 12 12 12 12 11 11 11 11 11 11 11 11 11 10 10 10 10 10 10 11 11 11 12 12 12 13 13 13 14 14 14 14 14 13
13 12 12 11 11 11 11 11 11 11 11 11 11 11 11 11 11 11 11 11 11 10 10 10 10 10 10 10 10 10 10 11 11 11 11 12 13 13 13 14 14 14 13
12 11 11 10 10 10 10 9 9 9 9 9 9 10 10 10 10 10 10 10 10 10 10 10 10 10 9 9 9 9 9 10 10 10 11 11 12 12 13 13 13 13 13
11 10 10 9 9 8 8 8 8 7 7 7 8 8 8 9 9 9 10 10 10 10 10 10 10 9 9 9 9 9 9 9 9 10 10 10 11 12 12 13 13 13 13
10 9 9 8 8 7 6 6 6 6 6 6 6 6 7 7 7 8 8 9 9 9 10 10 9 9 9 9 9 9 9 9 9 9 9 10 10 11 11 12 12 13 13
9 8 8 7 6 6 5 5 5 5 5 5 5 5 5 5 6 6 7 7 8 8 9 9 9 9 9 9 9 9 9 9 9 9 9 9 10 11 11 12 12 13 13
8 7 7 6 6 6 5 5 5 5 4 4 4 4 4 4 4 5 5 6 6 7 8 8 8 8 8 8 8 8 8 9 9 9 9 9 9 10 11 11 12 12 13
7 7 6 6 6 5 5 5 4 4 4 4 4 4 4 4 4 4 4 5 5 6 7 7 7 8 8 8 8 8 8 8 9 9 9 9 9 10 10 11 11 12 12
7 7 6 6 6 5 5 4 4 4 4 4 4 4 4 4 4 4 4 4 4 5 6 6 6 7 7 8 8 8 8 8 8 9 9 9 9 9 10 10 11 11 12
7 6 6 6 6 5 5 4 4 4 4 4 4 4 4 4 4 4 4 4 4 4 5 5 6 6 7 7 7 7 7 8 8 8 9 9 9 9 9 10 10 11 11
7 6 6 6 6 5 5 4 4 5 4 4 4 4 4 4 4 3 3 3 4 4 4 5 5 6 6 7 7 7 7 7 8 8 8 8 8 9 9 10 10 10 11
7 6 6 6 6 5 5 5 5 5 5 5 4 4 4 4 4 3 3 3 3 4 4 4 5 5 6 6 7 7 7 7 7 8 8 8 8 8 9 9 10 10 10
6 6 6 6 6 6 5 5 5 5 5 5 4 4 4 4 4 4 4 4 4 4 4 4 5 5 6 6 6 6 7 7 7 8 8 8 8 8 8 9 9 10 10
6 6 6 6 6 6 5 5 5 5 5 5 5 4 4 4 4 4 4 4 4 4 4 4 5 5 5 6 6 6 7 7 7 8 8 8 8 8 8 8 9 9 10
6 6 6 6 6 6 6 6 5 5 5 5 5 4 4 4 4 4 4 4 4 4 4 4 5 5 5 6 6 6 7 7 7 7 8 8 7 7 8 8 9 9 10
Wind_Speed
8 8 9 9 8 8 9 9 9 8 6 3 3 3 2 2 2 5 8 9 8 7 6 5 5 5 5 5 5 3 3 2 2 1 1 2 3 4 5 5 5 6 6
9 9 9 9 8 8 7 7 7 7 7 4 3 2 2 2 2 3 5 4 5 5 6 6 6 6 4 5 5 4 3 2 3 3 1 2 2 2 1 2 3 3 2
7 7 7 6 6 6 6 5 6 6 6 6 3 2 2 2 3 5 5 6 5 3 3 4 5 6 6 6 6 6 6 4 3 2 3 3 3 2 2 2 1 2 2
4 5 5 5 5 5 5 4 4 4 5 5 4 5 3 3 3 4 4 6 7 6 3 2 4 5 5 6 7 7 5 5 4 2 2 2 3 2 1 2 2 3 4
4 5 6 6 6 6 5 5 4 3 3 3 3 3 2 1 2 3 5 6 6 7 7 5 3 4 5 6 6 7 6 5 5 4 3 2 2 2 3 3 3 3 4
5 6 7 7 8 7 6 6 5 4 4 2 1 1 1 1 3 4 4 4 4 4 6 6 5 4 5 7 7 8 8 7 6 5 5 4 3 4 4 4 4 4 4
6 7 8 8 9 9 8 7 7 7 6 5 4 3 3 3 2 3 3 3 3 3 4 5 5 5 5 6 7 8 9 9 8 8 6 6 5 4 4 3 3 3 3
7 8 9 8 8 9 9 8 8 9 8 7 7 6 6 4 4 5 4 4 3 4 4 4 4 5 6 5 5 7 9 8 9 9 8 6 7 6 5 4 3 2 2
8 9 9 9 9 10 10 9 9 9 9 9 8 8 8 7 7 7 6 5 5 5 5 4 4 5 5 5 5 6 8 8 9 9 9 7 6 6 7 6 5 4 2
9 9 8 8 8 9 10 10 9 9 10 10 10 9 9 9 9 7 8 8 7 7 6 6 5 5 5 4 3 4 5 7 8 7 9 9 7 6 7 7 7 6 5
9 9 8 8 9 10 10 10 11 11 11 11 11 11 11 11 9 9 10 10 8 8 8 8 7 6 6 5 3 3 4 6 6 7 9 10 9 7 7 7 6 7 7
9 8 9 9 10 11 12 12 12 12 13 13 12 13 12 11 11 12 12 11 11 10 10 8 8 8 7 6 5 5 4 4 6 7 7 9 8 10 8 7 8 7 8
10 9 10 11 12 12 13 13 13 14 14 14 14 14 14 13 13 13 13 12 12 12 11 10 10 10 9 7 7 6 6 5 6 6 7 8 8 9 8 9 8 7 7
10 10 11 11 12 12 12 12 13 13 14 14 14 15 16 15 15 14 13 13 12 12 12 12 11 10 10 9 8 7 7 6 6 6 6 7 7 9 9 9 10 8 8
11 12 11 11 11 11 11 11 12 12 13 14 15 15 16 16 15 14 13 13 12 14 13 11 11 10 9 9 9 9 8 7 7 6 6 7 8 10 9 8 9 9 8
12 12 12 12 12 11 11 12 12 13 13 14 15 15 15 16 15 15 14 13 12 12 12 12 11 11 9 12 14 10 8 7 7 7 7 6 8 10 12 13 13 12 10
13 13 12 12 13 13 13 13 13 13 13 14 15 15 15 15 15 16 15 13 12 11 11 12 11 11 12 14 14 14 9 9 8 8 7 7 6 8 8 10 12 13 14
11 12 12 13 13 13 14 13 14 14 15 15 15 15 15 16 15 15 15 14 11 10 10 11 11 10 11 14 14 14 10 9 9 9 9 8 8 7 8 7 8 9 11
11 12 14 15 13 14 14 14 15 15 16 16 16 16 16 16 16 16 14 12 11 10 9 8 10 10 10 12 13 11 6 7 9 9 9 8 9 10 10 9 9 9 8
11 13 14 14 13 14 14 15 16 16 16 16 17 16 16 16 16 15 14 11 10 11 10 10 9 10 10 11 12 10 5 7 7 7 7 9 10 10 10 10 10 10 9
14 14 14 14 14 14 14 15 16 16 16 17 17 16 15 15 15 13 11 10 9 9 8 9 8 9 10 10 12 12 7 7 7 6 6 6 9 11 12 12 10 11 9
13 13 13 15 15 14 14 16 16 16 16 16 16 16 15 14 12 10 9 8 7 7 7 7 7 7 7 9 10 12 12 10 8 7 6 6 7 9 10 10 10 12 11
13 13 14 16 15 14 13 16 16 16 16 16 16 15 14 12 11 9 9 7 5 5 5 6 6 6 5 6 11 12 12 12 9 7 8 7 6 6 7 10 13 13 10
14 13 14 16 16 16 15 15 15 15 15 15 14 13 12 11 9 7 6 5 4 4 5 6 6 5 5 5 5 5 6 8 8 6 6 5 4 5 5 6 10 10 10
12 12 14 15 17 16 16 15 14 14 14 14 13 12 11 10 9 8 6 6 5 5 5 5 5 5 5 7 8 6 5 6 6 6 4 3 2 3 4 5 8 8 9
13 14 14 15 16 16 16 15 13 13 13 12 11 9 9 9 7 7 7 5 5 5 6 6 5 5 6 5 6 8 7 7 9 7 5 5 5 5 4 6 7 8 9
Wind_Direction
27 27 25 24 23 18 13 6 2 354 352 342 332 335 313 302 257 250 252 248 238 216 200 194 185 180 183 189 180 164 169 182 159 151 280 293 266 255 250 247 248 254 256
21 18 16 15 9 5 1 1 0 356 354 342 316 299 298 299 294 299 298 287 260 229 209 193 188 182 178 180 180 168 161 178 171 160 155 300 319 300 259 254 235 248 267
15 0 0 357 352 354 353 357 354 356 356 351 350 350 349 345 351 352 350 341 319 265 235 212 200 190 183 191 193 184 172 178 187 186 164 179 229 287 311 299 281 283 282
343 330 324 324 324 317 321 332 339 348 354 4 34 48 45 17 343 329 339 348 358 354 339 275 233 217 204 200 200 192 182 165 177 197 212 201 180 190 286 305 299 297 280
293 290 290 289 290 290 295 299 304 320 336 0 41 70 64 2 302 327 349 358 1 5 4 350 305 251 232 222 209 194 190 181 176 180 180 189 201 204 210 260 298 304 277
278 279 277 278 281 279 274 270 274 280 284 296 333 76 66 348 348 348 350 348 344 349 359 356 346 310 264 241 226 211 201 196 189 189 187 180 179 191 199 229 259 285 288
274 278 280 280 279 279 275 270 267 270 269 269 264 251 245 247 259 276 296 309 316 316 330 343 337 328 303 266 238 221 215 203 199 199 202 203 205 185 185 210 246 275 294
279 281 282 285 289 291 289 282 272 269 268 266 265 260 253 247 246 246 246 256 256 266 282 307 315 317 315 303 260 234 224 213 210 210 205 206 212 201 195 197 206 260 277
298 296 299 303 304 303 299 291 279 275 274 269 266 265 257 248 248 249 247 249 252 259 263 280 290 297 305 305 286 252 237 222 217 215 212 212 213 205 206 204 199 206 246
305 306 310 309 306 303 302 301 288 276 272 270 267 268 259 252 249 247 246 247 249 252 262 267 270 279 287 291 295 275 253 235 228 220 217 218 218 211 206 204 205 205 213
303 301 298 297 297 299 298 296 291 285 281 277 271 267 264 257 250 247 248 247 246 245 249 254 258 264 268 266 268 276 273 253 243 234 227 228 220 214 208 201 200 205 208
302 295 296 301 303 303 302 297 291 285 280 277 275 271 267 262 253 249 247 243 241 241 240 244 250 257 259 254 252 260 262 261 258 249 242 241 230 222 214 204 204 204 203
311 305 307 305 304 303 302 301 298 293 291 290 287 283 279 271 261 253 247 241 238 239 236 233 239 247 251 250 248 247 248 242 249 252 246 246 239 233 221 212 209 203 199
305 301 301 299 299 299 301 302 303 302 301 299 295 290 286 281 274 266 254 244 237 235 234 231 232 239 245 247 247 244 242 239 238 241 245 246 242 241 232 221 215 201 193
301 299 298 297 297 300 302 304 304 305 305 303 299 294 291 288 284 276 266 256 245 238 231 228 228 231 236 243 241 237 237 235 236 236 238 243 247 245 237 227 218 199 195
302 304 304 305 306 307 307 305 303 303 302 300 298 296 295 293 290 285 276 264 251 242 231 223 223 226 230 234 233 231 233 235 238 243 245 246 253 253 241 230 219 201 196
305 304 305 304 305 305 305 304 300 300 299 297 297 296 295 293 292 292 287 275 261 246 234 227 220 222 228 232 238 240 235 237 239 242 246 253 248 251 249 234 221 211 205
298 301 303 304 303 301 301 300 301 301 301 299 298 297 295 294 292 289 286 278 266 251 240 232 221 219 229 230 234 241 237 237 241 241 240 244 252 251 240 228 220 218 216
299 302 303 303 301 302 303 305 306 306 305 303 301 299 296 292 290 287 282 278 268 256 242 234 224 219 229 232 235 236 228 236 244 244 240 241 250 249 232 221 218 216 221
302 303 303 302 303 305 308 311 311 310 308 307 304 301 298 293 289 285 279 276 266 256 246 236 226 220 228 235 238 234 221 233 242 246 243 238 245 252 230 217 213 214 212
300 303 305 309 311 311 313 313 312 311 310 308 306 303 299 295 291 285 280 274 264 250 239 233 228 224 228 238 241 234 215 223 233 238 240 240 243 249 237 220 216 210 192
306 308 309 313 314 313 314 314 312 312 311 310 308 306 303 300 301 293 288 281 265 249 238 233 235 233 232 233 241 237 224 215 221 230 233 239 250 253 243 224 210 188 177
307 310 312 315 316 316 315 313 313 314 314 314 313 312 311 308 304 298 292 284 264 241 230 227 232 238 236 236 236 239 235 223 218 226 219 227 254 261 248 224 195 179 178
311 313 316 318 318 319 318 313 312 315 317 317 318 318 319 317 312 306 296 282 262 248 233 222 226 233 237 237 232 226 227 220 212 212 210 220 246 246 232 203 190 187 180
311 312 316 317 317 320 319 317 316 319 320 320 321 323 323 322 320 313 302 287 264 248 236 221 215 217 231 234 217 206 208 200 192 177 187 205 222 230 210 194 186 180 170
312 316 317 318 319 320 319 319 320 323 323 325 326 326 326 325 325 325 326 313 290 283 257 240 225 225 234 249 225 216 208 189 170 167 190 205 212 215 202 189 181 174 165
Height
1507 1507 1506 1505 1505 1503 1501 1499 1498 1496 1493 1490 1487 1485 1483 1483 1485 1488 1490 1492 1494 1495 1495 1495 1495 1495 1495 1496 1497 1497 1497 1497 1498 1499 1500 1500 1500 1500 1500 1501 1501 1502 1503
1510 1510 1509 1508 1507 1505 1503 1501 1499 1497 1495 1492 1490 1488 1487 1487 1488 1488 1489 1490 1491 1492 1493 1493 1493 1492 1493 1493 1494 1494 1494 1494 1495 1496 1496 1496 1496 1495 1495 1496 1496 1497 1498
1514 1513 1512 1511 1510 1507 1505 1503 1501 1498 1496 1494 1491 1489 1488 1487 1487 1486 1486 1486 1487 1489 1489 1489 1490 1490 1490 1491 1491 1491 1491 1491 1491 1492 1493 1493 1492 1492 1492 1493 1493 1494 1494
1517 1516 1515 1513 1512 1510 1507 1504 1502 1499 1496 1494 1491 1489 1487 1486 1485 1484 1483 1483 1483 1484 1484 1485 1486 1486 1487 1487 1488 1488 1488 1488 1488 1489 1490 1490 1490 1490 1489 1490 1490 1490 1490
1519 1517 1516 1515 1512 1510 1508 1505 1502 1499 1496 1493 1490 1488 1486 1484 1482 1481 1480 1479 1479 1479 1479 1479 1480 1481 1482 1483 1484 1484 1485 1485 1485 1485 1486 1486 1486 1486 1486 1486 1486 1486 1486
1520 1518 1517 1514 1512 1509 1506 1504 1501 1498 1494 1492 1489 1486 1484 1482 1480 1478 1476 1475 1475 1474 1474 1473 1473 1474 1476 1477 1479 1480 1481 1481 1482 1482 1482 1482 1482 1482 1482 1482 1481 1481 1481
1519 1517 1515 1513 1510 1507 1504 1501 1498 1495 1492 1489 1486 1484 1481 1479 1477 1474 1473 1471 1470 1469 1468 1467 1467 1467 1468 1470 1472 1474 1475 1477 1477 1478 1478 1478 1478 1478 1479 1479 1478 1477 1477
1518 1516 1513 1510 1507 1504 1500 1497 1493 1491 1488 1486 1483 1481 1478 1475 1473 1471 1469 1467 1465 1464 1463 1462 1461 1461 1461 1462 1464 1466 1468 1470 1472 1473 1473 1473 1474 1474 1475 1475 1476 1475 1475
1517 1514 1510 1507 1503 1499 1496 1492 1488 1486 1483 1481 1479 1476 1474 1471 1469 1466 1464 1463 1461 1459 1458 1456 1455 1455 1455 1455 1456 1458 1460 1463 1465 1467 1468 1469 1470 1470 1471 1472 1473 1473 1473
1514 1511 1507 1504 1500 1496 1492 1488 1485 1481 1478 1475 1473 1470 1468 1465 1463 1460 1459 1457 1456 1454 1453 1451 1450 1449 1449 1449 1449 1450 1452 1454 1457 1459 1462 1463 1465 1466 1467 1468 1469 1469 1470
1511 1508 1504 1501 1497 1493 1489 1485 1481 1477 1473 1469 1466 1463 1460 1457 1455 1453 1451 1450 1449 1448 1447 1446 1445 1444 1443 1443 1442 1443 1444 1446 1448 1451 1454 1456 1459 1460 1462 1463 1464 1465 1466
1508 1505 1501 1498 1493 1489 1485 1480 1476 1471 1467 1463 1459 1455 1451 1449 1446 1444 1443 1442 1441 1440 1440 1439 1439 1438 1437 1437 1436 1436 1437 1438 1439 1442 1446 1449 1451 1453 1456 1458 1459 1461 1462
1505 1502 1498 1494 1489 1484 1479 1474 1469 1464 1460 1455 1450 1446 1443 1440 1437 1434 1433 1433 1432 1432 1432 1431 1431 1431 1431 1431 1430 1430 1430 1430 1432 1434 1437 1440 1443 1446 1449 1451 1453 1456 1457
1502 1498 1494 1489 1484 1479 1473 1468 1462 1457 1452 1446 1441 1437 1433 1430 1426 1424 1423 1422 1422 1422 1422 1423 1423 1424 1424 1424 1425 1425 1424 1424 1426 1427 1429 1432 1435 1438 1441 1444 1447 1450 1451
1498 1493 1488 1483 1478 1472 1466 1460 1454 1449 1444 1438 1432 1427 1423 1419 1416 1413 1411 1410 1411 1411 1412 1413 1415 1416 1417 1418 1418 1419 1419 1419 1420 1421 1423 1425 1427 1430 1434 1437 1440 1443 1445
1493 1488 1483 1477 1471 1465 1459 1453 1447 1441 1436 1430 1424 1419 1414 1409 1405 1402 1400 1399 1399 1400 1402 1403 1406 1408 1409 1411 1412 1413 1414 1415 1415 1416 1417 1418 1421 1423 1426 1430 1433 1436 1439
1488 1483 1477 1470 1464 1458 1452 1445 1439 1434 1428 1422 1416 1411 1405 1400 1396 1392 1390 1389 1389 1390 1392 1394 1396 1399 1401 1404 1405 1407 1408 1409 1410 1411 1412 1413 1415 1417 1419 1422 1426 1429 1432
1483 1477 1470 1464 1458 1452 1445 1439 1433 1427 1421 1414 1409 1403 1398 1392 1387 1383 1380 1378 1379 1380 1382 1384 1387 1390 1393 1396 1398 1400 1401 1402 1404 1405 1406 1408 1409 1411 1413 1415 1418 1422 1425
1479 1472 1465 1459 1452 1446 1439 1433 1426 1420 1414 1408 1402 1396 1390 1384 1379 1375 1371 1369 1369 1369 1372 1375 1379 1382 1385 1389 1391 1393 1395 1396 1398 1400 1401 1402 1403 1405 1406 1408 1411 1415 1419
1474 1467 1459 1453 1446 1440 1433 1427 1420 1414 1407 1401 1395 1389 1383 1377 1371 1366 1363 1360 1359 1360 1362 1366 1370 1374 1377 1381 1384 1386 1388 1390 1392 1394 1395 1396 1397 1398 1400 1402 1404 1408 1412
1468 1461 1454 1447 1441 1434 1428 1421 1415 1408 1402 1395 1388 1382 1376 1370 1364 1359 1355 1353 1352 1352 1355 1358 1362 1366 1370 1373 1376 1379 1381 1383 1386 1388 1390 1391 1392 1392 1393 1395 1398 1402 1407
1462 1456 1449 1442 1436 1429 1423 1416 1410 1403 1397 1390 1383 1376 1370 1364 1358 1353 1350 1347 1346 1346 1348 1351 1355 1359 1363 1366 1369 1372 1375 1378 1380 1382 1384 1386 1387 1387 1388 1390 1393 1397 1401
1458 1452 1445 1438 1431 1425 1419 1412 1405 1398 1392 1385 1378 1371 1365 1359 1354 1349 1346 1343 1342 1342 1344 1346 1349 1353 1357 1360 1363 1366 1369 1371 1374 1376 1379 1380 1381 1382 1382 1384 1387 1392 1396
1454 1448 1441 1434 1427 1421 1414 1408 1401 1395 1388 1381 1375 1368 1362 1356 1351 1347 1344 1341 1340 1340 1341 1342 1345 1348 1351 1354 1357 1360 1363 1366 1369 1371 1374 1375 1376 1377 1377 1379 1382 1387 1391
1450 1444 1437 1430 1423 1417 1410 1404 1398 1392 1385 1379 1372 1366 1360 1355 1350 1346 1343 1340 1339 1339 1339 1340 1342 1345 1347 1350 1353 1355 1359 1362 1364 1367 1369 1371 1372 1372 1373 1375 1378 1383 1387
1447 1440 1434 1427 1420 1413 1407 1401 1395 1389 1383 1377 1371 1365 1360 1355 1351 1347 1343 1340 1338 1338 1338 1339 1341 1343 1345 1348 1350 1352 1355 1358 1360 1363 1365 1366 1367 1368 1369 1371 1374 1378 1383